| time (UTC) | temp C | wind direction | speed KPH | gust KPH | rain 1hr cm | rain 24hr cm | rain mn cm | humidity % | barometer mb |
| 20260505034427 | 12 | 118 | 0.0 | 8.0 | 0.00 | 0.00 | 0.00 | 87 | 1012.9 |
| 20260505033527 | 13 | 160 | 0.0 | 6.4 | 0.00 | 0.00 | 0.00 | 87 | 1012.8 |
| 20260505032627 | 13 | 0 | 0.0 | 0.0 | 0.00 | 0.00 | 0.00 | 87 | 1012.9 |
| 20260505031727 | 13 | 0 | 0.0 | 0.0 | 0.00 | 0.00 | 0.00 | 87 | 1012.9 |
| 20260505025927 | 13 | 149 | 0.0 | 3.2 | 0.00 | 0.00 | 0.00 | 87 | 1012.8 |
| 20260505024127 | 13 | 148 | 0.0 | 6.4 | 0.00 | 0.00 | 0.00 | 86 | 1012.7 |
| 20260505023227 | 13 | 137 | 0.0 | 1.6 | 0.00 | 0.00 | 0.00 | 86 | 1012.8 |
| 20260505022327 | 13 | 139 | 1.6 | 8.0 | 0.00 | 0.00 | 0.00 | 85 | 1012.8 |
| 20260505021427 | 13 | 118 | 0.0 | 8.0 | 0.00 | 0.00 | 0.00 | 85 | 1012.8 |
| 20260505015627 | 13 | 149 | 1.6 | 9.7 | 0.00 | 0.00 | 0.00 | 84 | 1012.8 |
| 20260505014727 | 13 | 152 | 0.0 | 8.0 | 0.00 | 0.00 | 0.00 | 84 | 1012.8 |
| 20260505013827 | 13 | 150 | 1.6 | 11.3 | 0.00 | 0.00 | 0.00 | 84 | 1012.9 |
| 20260505012927 | 14 | 146 | 1.6 | 9.7 | 0.00 | 0.00 | 0.00 | 84 | 1012.9 |
| 20260505012027 | 14 | 127 | 0.0 | 9.7 | 0.00 | 0.00 | 0.00 | 83 | 1013.0 |
| 20260505011127 | 14 | 139 | 3.2 | 14.5 | 0.00 | 0.00 | 0.00 | 83 | 1013.0 |
| 20260505010227 | 14 | 153 | 3.2 | 11.3 | 0.00 | 0.00 | 0.00 | 82 | 1013.0 |
| 20260505004427 | 15 | 150 | 0.0 | 6.4 | 0.00 | 0.00 | 0.00 | 82 | 1013.1 |
| 20260505003527 | 15 | 131 | 1.6 | 9.7 | 0.00 | 0.00 | 0.00 | 82 | 1013.1 |
| 20260505002627 | 15 | 107 | 1.6 | 9.7 | 0.00 | 0.00 | 0.00 | 80 | 1013.0 |
| 20260505001727 | 15 | 112 | 1.6 | 8.0 | 0.00 | 0.00 | 0.00 | 81 | 1013.1 |
| 20260504235927 | 15 | 157 | 1.6 | 12.9 | 0.00 | 0.00 | 0.00 | 80 | 1013.1 |
| 20260504235027 | 15 | 154 | 4.8 | 14.5 | 0.00 | 0.00 | 0.00 | 79 | 1013.1 |
| 20260504234127 | 15 | 105 | 3.2 | 11.3 | 0.00 | 0.00 | 0.00 | 78 | 1013.1 |
| 20260504233227 | 16 | 140 | 3.2 | 11.3 | 0.00 | 0.00 | 0.00 | 78 | 1013.1 |
| 20260504232327 | 16 | 150 | 4.8 | 19.3 | 0.00 | 0.00 | 0.00 | 78 | 1013.2 |
| 20260504231427 | 16 | 143 | 3.2 | 12.9 | 0.00 | 0.00 | 0.00 | 78 | 1013.2 |
| 20260504230527 | 16 | 153 | 4.8 | 14.5 | 0.00 | 0.00 | 0.00 | 78 | 1013.3 |
| 20260504225627 | 16 | 151 | 4.8 | 14.5 | 0.00 | 0.00 | 0.00 | 78 | 1013.3 |
| 20260504224727 | 16 | 146 | 3.2 | 11.3 | 0.00 | 0.00 | 0.00 | 79 | 1013.4 |
| 20260504223827 | 16 | 146 | 4.8 | 14.5 | 0.00 | 0.00 | 0.00 | 79 | 1013.3 |
| 20260504222927 | 16 | 148 | 3.2 | 14.5 | 0.00 | 0.00 | 0.00 | 80 | 1013.4 |
| 20260504222026 | 15 | 164 | 3.2 | 19.3 | 0.00 | 0.00 | 0.00 | 81 | 1013.4 |
| 20260504221127 | 15 | 148 | 3.2 | 14.5 | 0.00 | 0.00 | 0.00 | 80 | 1013.6 |
| 20260504220227 | 15 | 155 | 3.2 | 14.5 | 0.00 | 0.00 | 0.00 | 80 | 1013.6 |
| 20260504215327 | 15 | 168 | 3.2 | 9.7 | 0.00 | 0.00 | 0.00 | 82 | 1013.5 |
| 20260504214426 | 15 | 150 | 4.8 | 17.7 | 0.00 | 0.00 | 0.00 | 81 | 1013.6 |
| 20260504213527 | 15 | 151 | 4.8 | 20.9 | 0.00 | 0.00 | 0.00 | 81 | 1013.6 |
| 20260504212627 | 15 | 149 | 4.8 | 17.7 | 0.00 | 0.00 | 0.00 | 81 | 1013.6 |
| 20260504211727 | 15 | 154 | 3.2 | 11.3 | 0.00 | 0.00 | 0.00 | 82 | 1013.6 |
| 20260504210827 | 15 | 157 | 4.8 | 14.5 | 0.00 | 0.00 | 0.00 | 81 | 1013.7 |
| 20260504205927 | 15 | 156 | 4.8 | 14.5 | 0.00 | 0.00 | 0.00 | 81 | 1013.7 |
| 20260504205027 | 15 | 144 | 6.4 | 17.7 | 0.00 | 0.00 | 0.00 | 81 | 1013.8 |
| 20260504203227 | 15 | 140 | 4.8 | 14.5 | 0.00 | 0.00 | 0.00 | 80 | 1013.7 |
| 20260504202327 | 15 | 128 | 4.8 | 14.5 | 0.00 | 0.00 | 0.00 | 80 | 1013.7 |
| 20260504201427 | 15 | 124 | 6.4 | 19.3 | 0.00 | 0.00 | 0.00 | 79 | 1013.7 |
| 20260504200527 | 15 | 141 | 3.2 | 14.5 | 0.00 | 0.00 | 0.00 | 79 | 1013.7 |
| 20260504194726 | 15 | 185 | 1.6 | 8.0 | 0.00 | 0.00 | 0.00 | 80 | 1013.6 |
| 20260504192927 | 15 | 99 | 1.6 | 8.0 | 0.00 | 0.00 | 0.00 | 81 | 1013.6 |
| 20260504192026 | 15 | 153 | 3.2 | 12.9 | 0.00 | 0.00 | 0.00 | 81 | 1013.7 |
| 20260504191127 | 15 | 147 | 4.8 | 16.1 | 0.00 | 0.00 | 0.00 | 81 | 1013.7 |
| 20260504185326 | 15 | 168 | 4.8 | 14.5 | 0.00 | 0.00 | 0.00 | 83 | 1013.7 |
| 20260504183527 | 14 | 146 | 3.2 | 16.1 | 0.00 | 0.00 | 0.00 | 84 | 1013.8 |
| 20260504182627 | 14 | 152 | 1.6 | 9.7 | 0.00 | 0.00 | 0.00 | 85 | 1013.7 |
| 20260504181726 | 13 | 168 | 3.2 | 12.9 | 0.00 | 0.00 | 0.00 | 85 | 1013.7 |
| 20260504180827 | 13 | 159 | 3.2 | 9.7 | 0.00 | 0.00 | 0.00 | 86 | 1013.8 |
| 20260504175927 | 13 | 144 | 4.8 | 12.9 | 0.00 | 0.00 | 0.00 | 85 | 1013.7 |
| 20260504175026 | 13 | 160 | 6.4 | 19.3 | 0.00 | 0.00 | 0.00 | 85 | 1013.7 |
| 20260504174126 | 13 | 157 | 3.2 | 12.9 | 0.00 | 0.00 | 0.00 | 86 | 1013.6 |
| 20260504173227 | 13 | 150 | 3.2 | 16.1 | 0.00 | 0.00 | 0.00 | 86 | 1013.5 |
| 20260504172327 | 13 | 141 | 3.2 | 9.7 | 0.00 | 0.00 | 0.00 | 87 | 1013.6 |
| 20260504171426 | 13 | 159 | 1.6 | 11.3 | 0.00 | 0.00 | 0.00 | 88 | 1013.5 |
| 20260504170526 | 13 | 169 | 3.2 | 12.9 | 0.00 | 0.00 | 0.00 | 88 | 1013.4 |
| 20260504160227 | 12 | 160 | 3.2 | 11.3 | 0.00 | 0.00 | 0.00 | 90 | 1013.1 |
| 20260504140527 | 12 | 132 | 0.0 | 6.4 | 0.00 | 0.00 | 0.00 | 93 | 1012.3 |
| 20260504130226 | 11 | 151 | 1.6 | 6.4 | 0.00 | 0.00 | 0.00 | 93 | 1011.8 |
| 20260504100226 | 10 | 0 | 0.0 | 0.0 | 0.00 | 0.00 | 0.00 | 90 | 1010.2 |
| 20260504081426 | 11 | 0 | 0.0 | 0.0 | 0.00 | 0.00 | 0.00 | 83 | 1009.3 |
| 20260504080526 | 11 | 0 | 0.0 | 0.0 | 0.00 | 0.00 | 0.00 | 83 | 1009.2 |
| 20260504070226 | 13 | 0 | 0.0 | 0.0 | 0.00 | 0.00 | 0.00 | 80 | 1009.3 |
| 20260504050526 | 17 | 0 | 0.0 | 0.0 | 0.00 | 0.00 | 0.00 | 67 | 1009.3 |
| 20260504045626 | 17 | 0 | 0.0 | 0.0 | 0.00 | 0.00 | 0.00 | 67 | 1009.3 |
| 20260504043827 | 18 | 0 | 0.0 | 0.0 | 0.00 | 0.00 | 0.00 | 62 | 1009.2 |
| 20260504042927 | 18 | 0 | 0.0 | 0.0 | 0.00 | 0.00 | 0.00 | 61 | 1009.1 |
| 20260504042026 | 18 | 0 | 0.0 | 0.0 | 0.00 | 0.00 | 0.00 | 60 | 1009.0 |
| 20260504041127 | 20 | 0 | 0.0 | 0.0 | 0.00 | 0.00 | 0.00 | 58 | 1008.9 |
| 20260504040227 | 20 | 0 | 0.0 | 0.0 | 0.00 | 0.00 | 0.00 | 56 | 1008.8 |
| 20260504035327 | 21 | 0 | 0.0 | 0.0 | 0.00 | 0.00 | 0.00 | 55 | 1008.8 |